STARLINK-33788, 63589

Orbit data source: Space-Track

STARLINK-33788, 63589 is a payload satellite owned by SpaceX/Seattle (US) in LEO that was launched on Mon, 14 Apr 2025 UTC via an FALCON 9 launch vehicle from the Air Force Eastern Test Range (AFETR). Payload-class satellites include a variety of spacecraft equipped with specific instruments for various scientific and technological missions. These include communications satellites like Starlink; space stations such as the ISS; scientific satellites like the Hubble; Earth observation satellites from companies like Planet Labs, Umbra, and HawkEye 360; GPS; miniature CubeSats for education and research; and military/defense satellites.

Loading next visibility...
Identifier
63589, 2025-076W
Orbit
LEO
Country
Flag of USUS
Related business
Manufacturer
SpaceX/Seattle
Mission
Operational Commercial Communications
Bus & Motor
STARLINK V2MO, Unknown motor
Mass
575 kg wet, ~530 kg dry
Launch date (UTC)
2025-04-14 (10 months ago)
Launch vehicle
FALCON 9
Launch site
Air Force Eastern Test Range (AFETR)
Object type
Payload
Rocket body
Debris
Shape & HBR
Box + 2 Pan, 17.7 m
Radar Cross Section
36.964 m², Large (>1 m²)

Expand to show TLE details & history
Last TLE update: 15 hours ago

TLE from 15 hours ago
0 STARLINK-33788
1 63589U 25076W   26036.68918223  .00037475  00000-0  13631-2 0  9999
2 63589  43.0035 142.6513 0002322 288.5317  71.5283 15.27611127 46934
Epoch: 2026-02-05T16:32Z
TLE epoch observation values (Epoch: 2026-02-05T16:32:25.344Z)
Latitude
0.00002°
Longitude
118.70792°
Altitude
482.227 km
Speed
7.626 km/s
True Right ascension
09h 30m 36s
True Declination
0° 00' 00"
Sunlit
Object was in full shadow at epoch
Visualization orbit readout
Latitude
Unknown
Longitude
Unknown
Altitude
Unknown
Speed
Unknown
Apparent Right ascension
Unknown
Apparent Declination
Unknown
Sunlit
N/A
Visualization observer readout
Local Sidereal Time
10:00:12
Azimuth
Unknown
Elevation
Unknown
Doppler factor
Unknown
Orbital elements
Apogee altitude
486.494 km
Perigee altitude
483.307 km
Semi-major axis
6,863.038 km
Eccentricity
0.00023
Inclination
43.0035°
RAAN
142.6513°
Arg. of periapsis
288.5317°
True anomaly
71.55354°
Mean anomaly
71.5283°
Eccentric anomaly
71.54092°
Mean motion
3.81741 °/min
Orbital period
94.3 mins
BSTAR
0.0013631
Loading maneuver chart data...
Computing Atmospheric mass density...
Loading historical data...
Loading historical data...
Loading historical data...
Loading historical data...
Loading historical data...
Loading historical data...
Loading historical data...

Documentation

Showing up to 5 results
|